EZS59MQ EGKK-LSGG

Flight info

Callsign EZS59MQ
Flight time N/A
Altitude 31000
Route BOGNA L612 XAMAB UL612 VEULE DCT PEKIM DCT PILUL DCT PIMUP/N0379F270 DCT PIXIS DCT PIBAT DCT LUSAR
Aircraft A320/M-SDE2E3FGHIJ1RWXYZ/LB1

Departure

Time 2026-04-14 13:52
Airport London Gatwick Airport (EGKK)

Arrival

Time N/A
Airport Geneva International Airport (LSGG)
Time Latitude Longitude Altitude Speed Heading
2026-04-14 13:19 51.15861 -0.17938 204 ft 0 kts 78°
2026-04-14 13:31 51.15859 -0.17953 204 ft 4 kts 78°
2026-04-14 13:31 51.15854 -0.17996 208 ft 4 kts 83°
2026-04-14 13:31 51.15853 -0.18038 212 ft 4 kts 95°
2026-04-14 13:32 51.15859 -0.18077 210 ft 4 kts 135°
2026-04-14 13:32 51.15867 -0.18087 214 ft 0 kts 167°
2026-04-14 13:35 51.15866 -0.18087 215 ft 1 kts 168°
2026-04-14 13:35 51.15853 -0.18082 210 ft 3 kts 168°
2026-04-14 13:36 51.15827 -0.18073 208 ft 5 kts 168°
2026-04-14 13:36 51.15789 -0.18061 208 ft 6 kts 168°
2026-04-14 13:36 51.15738 -0.18042 213 ft 9 kts 166°
2026-04-14 13:36 51.15696 -0.17979 206 ft 9 kts 101°
2026-04-14 13:37 51.15708 -0.17887 207 ft 8 kts 78°
2026-04-14 13:37 51.15718 -0.17808 208 ft 8 kts 77°
2026-04-14 13:37 51.15736 -0.17695 212 ft 13 kts 79°
2026-04-14 13:37 51.15752 -0.17554 208 ft 8 kts 92°
2026-04-14 13:38 51.15708 -0.17492 205 ft 11 kts 181°
2026-04-14 13:38 51.15620 -0.17463 207 ft 15 kts 166°
2026-04-14 13:38 51.15505 -0.17423 207 ft 19 kts 168°
2026-04-14 13:38 51.15377 -0.17380 214 ft 18 kts 169°
2026-04-14 13:39 51.15251 -0.17320 210 ft 19 kts 137°
2026-04-14 13:39 51.15260 -0.17118 213 ft 20 kts 79°
2026-04-14 13:39 51.15281 -0.16971 206 ft 0 kts 77°
2026-04-14 13:40 51.15283 -0.16951 204 ft 8 kts 77°
2026-04-14 13:40 51.15286 -0.16933 204 ft 0 kts 77°
2026-04-14 13:48 51.15290 -0.16904 208 ft 4 kts 81°
2026-04-14 13:48 51.15288 -0.16868 204 ft 2 kts 105°
2026-04-14 13:48 51.15282 -0.16851 213 ft 1 kts 117°
2026-04-14 13:49 51.15280 -0.16845 211 ft 1 kts 122°
2026-04-14 13:49 51.15249 -0.16817 207 ft 7 kts 164°
2026-04-14 13:49 51.15239 -0.16813 210 ft 0 kts 166°
2026-04-14 13:50 51.15229 -0.16810 204 ft 3 kts 167°
2026-04-14 13:50 51.15202 -0.16802 207 ft 5 kts 169°
2026-04-14 13:50 51.15155 -0.16792 202 ft 9 kts 180°
2026-04-14 13:50 51.15116 -0.16868 215 ft 10 kts 246°
2026-04-14 13:51 51.15091 -0.17020 209 ft 29 kts 256°
2026-04-14 13:51 51.14944 -0.18016 211 ft 114 kts 263°
2026-04-14 13:51 51.14740 -0.19530 216 ft 163 kts 257°
2026-04-14 13:51 51.14483 -0.21432 564 ft 181 kts 251°
2026-04-14 13:52 51.14218 -0.23369 1418 ft 177 kts 250°
2026-04-14 13:52 51.13940 -0.25360 1855 ft 196 kts 251°
2026-04-14 13:52 51.13616 -0.27639 2133 ft 224 kts 252°
2026-04-14 13:52 51.13284 -0.29999 3222 ft 217 kts 253°
2026-04-14 13:53 51.12943 -0.32417 3948 ft 226 kts 253°
2026-04-14 13:53 51.12613 -0.34817 5025 ft 220 kts 253°
2026-04-14 13:53 51.12279 -0.37288 4974 ft 231 kts 253°
2026-04-14 13:53 51.11858 -0.39670 4927 ft 216 kts 239°
2026-04-14 13:54 51.10879 -0.41409 5104 ft 213 kts 210°
2026-04-14 13:54 51.09455 -0.42019 5803 ft 216 kts 183°
2026-04-14 13:54 51.07906 -0.41914 6494 ft 227 kts 181°
2026-04-14 13:54 51.06285 -0.41742 7037 ft 245 kts 179°
2026-04-14 13:55 51.04528 -0.41534 7602 ft 258 kts 179°
2026-04-14 13:55 51.02714 -0.41304 8391 ft 264 kts 178°
2026-04-14 13:55 51.00869 -0.41027 9235 ft 268 kts 176°
2026-04-14 13:55 50.98995 -0.40722 10060 ft 273 kts 176°
2026-04-14 13:56 50.97088 -0.40440 10797 ft 277 kts 178°
2026-04-14 13:56 50.95159 -0.40183 11573 ft 279 kts 179°
2026-04-14 13:56 50.93207 -0.39953 12297 ft 285 kts 179°
2026-04-14 13:56 50.91208 -0.39756 12970 ft 291 kts 181°
2026-04-14 13:57 50.89171 -0.39592 13684 ft 296 kts 181°
2026-04-14 13:57 50.87101 -0.39370 14347 ft 300 kts 179°
2026-04-14 13:57 50.85005 -0.39025 14969 ft 307 kts 175°
2026-04-14 13:57 50.82918 -0.38057 15486 ft 320 kts 160°
2026-04-14 13:58 50.80946 -0.36305 16057 ft 330 kts 149°
2026-04-14 13:58 50.79051 -0.34299 16841 ft 327 kts 150°
2026-04-14 13:58 50.77143 -0.32349 17553 ft 328 kts 151°
2026-04-14 13:58 50.75196 -0.30399 18109 ft 335 kts 151°
2026-04-14 13:59 50.73227 -0.28395 18654 ft 340 kts 150°
2026-04-14 13:59 50.71239 -0.26326 19167 ft 344 kts 149°
2026-04-14 13:59 50.69232 -0.24222 19586 ft 352 kts 148°
2026-04-14 13:59 50.67147 -0.22022 19711 ft 369 kts 148°
2026-04-14 14:00 50.64998 -0.19749 19828 ft 385 kts 148°
2026-04-14 14:00 50.62740 -0.17369 20138 ft 394 kts 148°
2026-04-14 14:00 50.60446 -0.14957 20574 ft 399 kts 148°
2026-04-14 14:00 50.58123 -0.12517 21010 ft 404 kts 148°
2026-04-14 14:01 50.55767 -0.10046 21455 ft 409 kts 148°
2026-04-14 14:01 50.53383 -0.07556 21898 ft 413 kts 148°
2026-04-14 14:01 50.50979 -0.05052 22392 ft 416 kts 148°
2026-04-14 14:01 50.49343 -0.03352 22694 ft 419 kts 148°
2026-04-14 14:02 50.46929 -0.00850 23126 ft 423 kts 148°
2026-04-14 14:02 50.44451 0.01713 23467 ft 430 kts 148°
2026-04-14 14:02 50.41939 0.04314 23820 ft 435 kts 148°
2026-04-14 14:02 50.39398 0.06944 24186 ft 439 kts 147°
2026-04-14 14:03 50.36841 0.09588 24550 ft 442 kts 147°
2026-04-14 14:03 50.34264 0.12249 24924 ft 445 kts 147°
2026-04-14 14:03 50.31670 0.14924 25288 ft 448 kts 147°
2026-04-14 14:03 50.29024 0.17652 25652 ft 451 kts 147°
2026-04-14 14:04 50.26427 0.20331 26009 ft 454 kts 147°
2026-04-14 14:04 50.23779 0.23054 26361 ft 457 kts 147°
2026-04-14 14:04 50.21078 0.25827 26712 ft 460 kts 147°
2026-04-14 14:04 50.18429 0.28538 27051 ft 463 kts 147°
2026-04-14 14:05 50.15732 0.31303 27389 ft 466 kts 147°
2026-04-14 14:05 50.13018 0.34092 27722 ft 469 kts 147°
2026-04-14 14:05 50.10288 0.36897 28056 ft 472 kts 147°
2026-04-14 14:05 50.07539 0.39719 28376 ft 475 kts 147°
2026-04-14 14:06 50.04773 0.42555 28700 ft 478 kts 147°
2026-04-14 14:06 50.01989 0.45406 29017 ft 480 kts 147°
2026-04-14 14:06 49.99190 0.48263 29355 ft 483 kts 147°
2026-04-14 14:06 49.96372 0.51131 29679 ft 486 kts 147°
2026-04-14 14:07 49.93538 0.54009 29990 ft 488 kts 146°
2026-04-14 14:07 49.90685 0.56901 30287 ft 491 kts 146°
2026-04-14 14:07 49.87823 0.59801 30534 ft 493 kts 146°
2026-04-14 14:07 49.85050 0.62953 30782 ft 495 kts 138°
2026-04-14 14:08 49.82521 0.66578 31024 ft 497 kts 135°
2026-04-14 14:08 49.80006 0.70265 31268 ft 499 kts 135°
2026-04-14 14:08 49.77475 0.73959 31518 ft 501 kts 135°
2026-04-14 14:08 49.74937 0.77642 31857 ft 501 kts 135°
2026-04-14 14:09 49.72392 0.81325 32184 ft 501 kts 135°
2026-04-14 14:09 49.69847 0.84996 32515 ft 501 kts 135°
2026-04-14 14:09 49.67299 0.88667 32834 ft 501 kts 135°
2026-04-14 14:09 49.64752 0.92335 33197 ft 501 kts 134°
2026-04-14 14:10 49.62212 0.95997 33567 ft 500 kts 134°
2026-04-14 14:10 49.59672 0.99658 33886 ft 500 kts 134°
2026-04-14 14:10 49.57127 1.03323 34215 ft 500 kts 134°
2026-04-14 14:10 49.54584 1.06978 34483 ft 500 kts 134°
2026-04-14 14:11 49.52037 1.10626 34748 ft 501 kts 134°
2026-04-14 14:11 49.49485 1.14275 34991 ft 501 kts 134°
2026-04-14 14:11 49.46932 1.17914 35157 ft 502 kts 134°
2026-04-14 14:12 49.41753 1.25289 35191 ft 514 kts 135°
2026-04-14 14:12 49.36454 1.32831 35189 ft 525 kts 135°
2026-04-14 14:13 49.31036 1.40500 35184 ft 533 kts 134°
2026-04-14 14:13 49.25569 1.48196 35182 ft 534 kts 134°
2026-04-14 14:14 49.20106 1.55892 35179 ft 534 kts 134°
2026-04-14 14:14 49.14639 1.63581 35187 ft 534 kts 134°
2026-04-14 14:15 49.09162 1.71247 35184 ft 534 kts 134°
2026-04-14 14:15 49.03673 1.78884 35212 ft 534 kts 134°
2026-04-14 14:16 48.98184 1.86501 35201 ft 534 kts 134°
2026-04-14 14:16 48.92727 1.94053 35199 ft 534 kts 134°
2026-04-14 14:17 48.84493 2.05430 35196 ft 533 kts 134°
2026-04-14 14:17 48.78998 2.12985 35195 ft 533 kts 134°
2026-04-14 14:18 48.73493 2.20530 35215 ft 533 kts 134°
2026-04-14 14:18 48.67995 2.28055 35214 ft 533 kts 134°
2026-04-14 14:19 48.62485 2.35559 35194 ft 532 kts 134°
2026-04-14 14:19 48.56979 2.43019 35195 ft 532 kts 134°
2026-04-14 14:20 48.51471 2.50469 35199 ft 532 kts 134°
2026-04-14 14:20 48.45964 2.57910 35198 ft 532 kts 134°
2026-04-14 14:21 48.40451 2.65323 35219 ft 530 kts 134°
2026-04-14 14:21 48.34952 2.72708 35218 ft 529 kts 134°
2026-04-14 14:22 48.29458 2.80050 35217 ft 529 kts 135°
2026-04-14 14:22 48.23855 2.87216 35212 ft 530 kts 138°
2026-04-14 14:23 48.17992 2.93923 35202 ft 530 kts 140°
2026-04-14 14:23 48.12067 3.00497 35232 ft 530 kts 140°
2026-04-14 14:24 48.05828 3.06353 35225 ft 532 kts 155°
2026-04-14 14:24 47.99026 3.10708 35220 ft 531 kts 156°
2026-04-14 14:25 47.92210 3.14977 35208 ft 531 kts 156°
2026-04-14 14:25 47.85396 3.19232 35202 ft 531 kts 156°
2026-04-14 14:26 47.78588 3.23487 35197 ft 531 kts 156°
2026-04-14 14:26 47.71776 3.27739 35195 ft 531 kts 155°
2026-04-14 14:27 47.64957 3.31972 35188 ft 531 kts 155°
2026-04-14 14:27 47.58136 3.36191 35221 ft 531 kts 156°
2026-04-14 14:28 47.51325 3.40388 35218 ft 530 kts 156°
2026-04-14 14:28 47.44533 3.44584 35210 ft 529 kts 156°
2026-04-14 14:29 47.37745 3.48779 35201 ft 528 kts 156°
2026-04-14 14:29 47.30962 3.52951 35191 ft 528 kts 155°
2026-04-14 14:30 47.24174 3.57096 35186 ft 528 kts 156°
2026-04-14 14:30 47.17380 3.61228 35184 ft 528 kts 156°
2026-04-14 14:31 47.14044 3.63255 35187 ft 517 kts 156°
2026-04-14 14:31 47.10742 3.65258 35191 ft 500 kts 155°
2026-04-14 14:31 47.04435 3.69077 35182 ft 486 kts 155°
2026-04-14 14:32 47.01310 3.70971 34951 ft 484 kts 155°
2026-04-14 14:32 46.98291 3.73082 34714 ft 478 kts 145°
2026-04-14 14:32 46.95647 3.75965 34478 ft 470 kts 131°
2026-04-14 14:32 46.93502 3.79487 34241 ft 460 kts 118°
2026-04-14 14:33 46.91912 3.83475 33975 ft 448 kts 106°
2026-04-14 14:33 46.90784 3.87675 33709 ft 443 kts 103°
2026-04-14 14:33 46.89686 3.91875 33429 ft 441 kts 103°
2026-04-14 14:33 46.88581 3.96049 33156 ft 439 kts 103°
2026-04-14 14:34 46.86369 4.04328 32637 ft 436 kts 103°
2026-04-14 14:34 46.85270 4.08436 32403 ft 433 kts 104°
2026-04-14 14:34 46.84178 4.12512 32140 ft 429 kts 104°
2026-04-14 14:35 46.83093 4.16557 31883 ft 427 kts 104°
2026-04-14 14:35 46.82012 4.20577 31630 ft 424 kts 104°
2026-04-14 14:35 46.80957 4.24530 31375 ft 421 kts 101°
2026-04-14 14:35 46.80186 4.28582 31133 ft 410 kts 93°
2026-04-14 14:36 46.79603 4.32701 30881 ft 408 kts 94°
2026-04-14 14:36 46.79030 4.36698 30639 ft 407 kts 93°
2026-04-14 14:36 46.78449 4.40719 30394 ft 405 kts 94°
2026-04-14 14:36 46.77865 4.44737 30138 ft 403 kts 94°
2026-04-14 14:37 46.77282 4.48727 29880 ft 401 kts 95°
2026-04-14 14:37 46.76698 4.52682 29595 ft 398 kts 95°
2026-04-14 14:37 46.76113 4.56617 29314 ft 396 kts 95°
2026-04-14 14:37 46.75530 4.60534 29036 ft 394 kts 95°
2026-04-14 14:38 46.74952 4.64429 28764 ft 392 kts 95°
2026-04-14 14:38 46.74378 4.68304 28490 ft 390 kts 95°
2026-04-14 14:38 46.73805 4.72165 28220 ft 389 kts 95°
2026-04-14 14:38 46.73234 4.76002 27954 ft 387 kts 95°
2026-04-14 14:39 46.72666 4.79826 27682 ft 385 kts 95°
2026-04-14 14:39 46.72097 4.83634 27419 ft 383 kts 96°
2026-04-14 14:39 46.71530 4.87423 27191 ft 382 kts 96°
2026-04-14 14:39 46.70962 4.91192 26939 ft 380 kts 97°
2026-04-14 14:40 46.70395 4.94942 26675 ft 378 kts 97°
2026-04-14 14:40 46.69828 4.98679 26424 ft 377 kts 97°
2026-04-14 14:40 46.69266 5.02395 26172 ft 375 kts 97°
2026-04-14 14:40 46.68703 5.06095 25921 ft 374 kts 97°
2026-04-14 14:41 46.68140 5.09779 25668 ft 372 kts 97°
2026-04-14 14:41 46.67576 5.13448 25431 ft 371 kts 97°
2026-04-14 14:41 46.67014 5.17108 25190 ft 369 kts 97°
2026-04-14 14:41 46.66457 5.20738 24950 ft 368 kts 97°
2026-04-14 14:42 46.65906 5.24366 24710 ft 366 kts 97°
2026-04-14 14:42 46.65363 5.27980 24493 ft 365 kts 98°
2026-04-14 14:42 46.64834 5.31531 24257 ft 363 kts 99°
2026-04-14 14:42 46.64297 5.35113 24028 ft 361 kts 99°
2026-04-14 14:43 46.63759 5.38673 23797 ft 360 kts 99°
2026-04-14 14:43 46.63218 5.42223 23533 ft 359 kts 99°
2026-04-14 14:43 46.62664 5.45755 23160 ft 358 kts 102°
2026-04-14 14:43 46.61644 5.49072 22132 ft 365 kts 123°
2026-04-14 14:44 46.59865 5.51736 21118 ft 372 kts 143°
2026-04-14 14:44 46.57532 5.53382 20120 ft 377 kts 164°
2026-04-14 14:44 46.54945 5.53848 19352 ft 373 kts 176°
2026-04-14 14:44 46.52372 5.54097 18623 ft 368 kts 170°
2026-04-14 14:45 46.49901 5.54931 17842 ft 362 kts 164°
2026-04-14 14:45 46.47476 5.55839 17046 ft 358 kts 164°
2026-04-14 14:45 46.45077 5.56727 16308 ft 353 kts 164°
2026-04-14 14:45 46.42710 5.57598 15593 ft 349 kts 165°
2026-04-14 14:46 46.40381 5.58452 14968 ft 342 kts 165°
2026-04-14 14:46 46.38095 5.59292 14324 ft 336 kts 165°
2026-04-14 14:46 46.35838 5.60125 13612 ft 333 kts 165°
2026-04-14 14:46 46.33611 5.60947 12879 ft 328 kts 165°
2026-04-14 14:47 46.31430 5.61750 12403 ft 317 kts 165°
2026-04-14 14:47 46.30039 5.62263 12154 ft 308 kts 165°
2026-04-14 14:47 46.28003 5.63014 11788 ft 296 kts 165°
2026-04-14 14:47 46.26044 5.63736 11430 ft 285 kts 165°
2026-04-14 14:48 46.24155 5.64429 11082 ft 275 kts 165°
2026-04-14 14:48 46.22312 5.65106 10744 ft 273 kts 164°
2026-04-14 14:48 46.20471 5.65784 10403 ft 272 kts 165°
2026-04-14 14:48 46.18640 5.66458 10047 ft 271 kts 164°
2026-04-14 14:49 46.16815 5.67117 9665 ft 270 kts 165°
2026-04-14 14:49 46.15002 5.67762 9302 ft 267 kts 165°
2026-04-14 14:49 46.13225 5.68388 8909 ft 260 kts 163°
2026-04-14 14:49 46.11495 5.68998 8705 ft 256 kts 163°
2026-04-14 14:50 46.09829 5.69849 8573 ft 253 kts 148°
2026-04-14 14:50 46.08416 5.71301 8393 ft 249 kts 133°
2026-04-14 14:50 46.07156 5.73053 7861 ft 253 kts 132°
2026-04-14 14:50 46.05903 5.74817 7535 ft 252 kts 131°
2026-04-14 14:51 46.04666 5.76568 7273 ft 247 kts 128°
2026-04-14 14:51 46.03850 5.78653 6949 ft 234 kts 98°
2026-04-14 14:51 46.03858 5.80900 6779 ft 221 kts 72°
2026-04-14 14:51 46.04554 5.82808 6561 ft 215 kts 47°
2026-04-14 14:52 46.05615 5.84311 6230 ft 214 kts 45°
2026-04-14 14:52 46.06650 5.85840 5872 ft 213 kts 45°
2026-04-14 14:52 46.07668 5.87375 5630 ft 211 kts 45°
2026-04-14 14:52 46.08711 5.88878 5353 ft 212 kts 44°
2026-04-14 14:53 46.09712 5.90364 5053 ft 207 kts 45°
2026-04-14 14:53 46.10722 5.91844 4916 ft 208 kts 44°
2026-04-14 14:53 46.11773 5.93342 4437 ft 213 kts 43°
2026-04-14 14:53 46.12788 5.94816 4242 ft 201 kts 43°
2026-04-14 14:54 46.13745 5.96229 3952 ft 194 kts 43°
2026-04-14 14:54 46.14644 5.97570 3778 ft 177 kts 45°
2026-04-14 14:54 46.15478 5.98777 3568 ft 164 kts 42°
2026-04-14 14:54 46.16271 5.99893 3312 ft 154 kts 43°
2026-04-14 14:55 46.16998 6.00961 3070 ft 147 kts 43°
2026-04-14 14:55 46.17728 6.01952 2829 ft 143 kts 45°
2026-04-14 14:55 46.18414 6.02987 2644 ft 142 kts 45°
2026-04-14 14:55 46.19100 6.04023 2430 ft 145 kts 45°
2026-04-14 14:56 46.20501 6.06082 2048 ft 142 kts 45°
2026-04-14 14:56 46.21214 6.07085 1904 ft 142 kts 45°
2026-04-14 14:56 46.21922 6.08108 1648 ft 141 kts 47°
2026-04-14 14:57 46.22616 6.09129 1523 ft 142 kts 47°
2026-04-14 14:57 46.23289 6.10139 1413 ft 133 kts 46°
2026-04-14 14:57 46.23885 6.11028 1406 ft 124 kts 45°
2026-04-14 14:57 46.24595 6.12061 1798 ft 157 kts 47°
2026-04-14 14:58 46.25338 6.13183 2791 ft 153 kts 47°
2026-04-14 14:58 46.26096 6.14392 3034 ft 172 kts 48°
2026-04-14 14:58 46.26935 6.15804 3041 ft 201 kts 49°
2026-04-14 14:58 46.27867 6.17392 3524 ft 210 kts 49°
2026-04-14 14:59 46.28804 6.18977 4381 ft 207 kts 49°
2026-04-14 14:59 46.29720 6.20546 5300 ft 206 kts 49°
2026-04-14 14:59 46.30642 6.22170 5977 ft 215 kts 50°
2026-04-14 14:59 46.31690 6.23691 5996 ft 213 kts 38°
2026-04-14 15:00 46.32908 6.25148 5949 ft 241 kts 38°
2026-04-14 15:00 46.34404 6.26306 6058 ft 251 kts 15°
2026-04-14 15:00 46.36159 6.26357 6062 ft 258 kts 347°
2026-04-14 15:00 46.37706 6.25036 6060 ft 266 kts 316°
2026-04-14 15:01 46.38609 6.22682 6082 ft 275 kts 286°
2026-04-14 15:01 46.38598 6.19844 6081 ft 294 kts 255°
2026-04-14 15:01 46.37527 6.17345 6017 ft 297 kts 225°
2026-04-14 15:01 46.35972 6.15377 5886 ft 298 kts 218°
2026-04-14 15:02 46.34317 6.13567 5923 ft 299 kts 217°
2026-04-14 15:02 46.32623 6.11780 5943 ft 302 kts 215°
2026-04-14 15:02 46.30893 6.10074 5951 ft 301 kts 214°
2026-04-14 15:02 46.29151 6.08406 5897 ft 299 kts 213°
2026-04-14 15:03 46.27420 6.06757 5840 ft 299 kts 213°
2026-04-14 15:03 46.25740 6.04995 5838 ft 299 kts 217°
2026-04-14 15:03 46.24080 6.03163 5819 ft 301 kts 217°
2026-04-14 15:03 46.22417 6.01342 5809 ft 300 kts 217°
2026-04-14 15:04 46.20755 5.99532 5742 ft 298 kts 217°
2026-04-14 15:04 46.19085 5.97770 5486 ft 293 kts 210°
2026-04-14 15:04 46.17276 5.97183 5439 ft 249 kts 161°
2026-04-14 15:04 46.16101 5.98549 5241 ft 205 kts 97°
2026-04-14 15:05 46.16387 6.00335 4532 ft 188 kts 51°
2026-04-14 15:05 46.17279 6.01707 4033 ft 176 kts 41°
2026-04-14 15:05 46.18146 6.02822 3632 ft 161 kts 39°
2026-04-14 15:05 46.18973 6.03865 3082 ft 157 kts 41°
2026-04-14 15:06 46.19772 6.04928 2471 ft 156 kts 42°
2026-04-14 15:06 46.20528 6.06007 2114 ft 147 kts 46°
2026-04-14 15:06 46.21218 6.07011 2006 ft 141 kts 47°